OPS 1570 (DSP 3) 1 05851U 72010A 21061.89978424 .00000001 00000-0 00000-0 0 9991 2 05851 4.5568 288.8893 0007701 351.9599 218.1062 0.99778301 6641 TITAN 3C TRANSTAGE R/B 1 05854U 72010B 21061.45026235 -.00000199 00000-0 00000-0 0 9999 2 05854 4.0108 287.2122 0061146 108.1753 252.2801 1.00663439 5449